Regional Weather Roundup
Issued by NWS

Home | Current Version | Previous Version | Graphics & Text | Print | Product List | Glossary On
Versions: 1 2 3 4 5 6 7 8 9 10 11 12 13 14 15 16 17 18 19 20 21 22 23 24 25 26 27 28 29 30 31 32 33 34 35 36 37 38 39 40 41 42 43 44 45 46 47 48 49 50
407
ASUS43 KLSX 221007
RWRMO

WEATHER SUMMARY FOR MISSOURI
NATIONAL WEATHER SERVICE SPRINGFIELD MO
400 AM CST WED FEB 22 2017

NOTE: "FAIR" INDICATES FEW OR NO CLOUDS BELOW 12,000 FEET WITH NO
       SIGNIFICANT WEATHER AND/OR OBSTRUCTIONS TO VISIBILITY.
       CURRENT SKY AND/OR WEATHER CONDITIONS ARE NOT AVAILABLE FOR
       CHILLICOTHE AND FARMINGTON.

MOZ001>031-035>038-043-044-053-054-221100-
...NORTHERN AND WESTERN MISSOURI...

CITY           SKY/WX    TMP DP  RH WIND       PRES   REMARKS
KANSAS CTY INT PTCLDY    47  36  65 S12       29.80F
KANSAS C DTWN  CLEAR     45  38  76 CALM      29.80F
LEE`S SUMMIT   CLEAR     51  46  83 S12       29.82F
ST JOSEPH      CLEAR     45  35  68 S6        29.79F
CHILLICOTHE      N/A     45  43  93 S5        29.82F
KIRKSVILLE     CLEAR     51  51 100 SW8       29.81F FOG

$$
MOZ066>068-077>081-088>096-101>105-221100-
...SOUTHWEST MISSOURI...

CITY           SKY/WX    TMP DP  RH WIND       PRES   REMARKS
SPRINGFIELD    FOG       55  55 100 S8        29.87F VSB 3/4
JOPLIN         CLEAR     49  49 100 S8        29.87F
BRANSON        CLOUDY    54  54 100 CALM      29.90F FOG

$$
MOZ032>034-039>042-045>050-055>058-069>072-221100-
...CENTRAL MISSOURI...

CITY           SKY/WX    TMP DP  RH WIND       PRES   REMARKS
COLUMBIA       FOG       50  50 100 S6        29.85F VSB 1/4
JEFFERSON CITY FOG       48  48 100 E6        29.86F VSB 1/4
ROLLA          FOG       54  54 100 SW9       29.86F VSB 1/4
SEDALIA        FOG       50  49  96 S6        29.85F VSB 1/2
WHITEMAN AFB   CLEAR     48  48 100 S8        29.83S FOG
WARRENSBURG    CLEAR     46  45  93 S6        29.83S
OSAGE BEACH    LGT RAIN  51  51 100 S6        29.88F VSB 1/4

$$
MOZ051-052-059>065-221100-
...EAST CENTRAL MISSOURI...

CITY           SKY/WX    TMP DP  RH WIND       PRES   REMARKS
ST LOUIS INTL  PTCLDY    52  49  89 CALM      29.86F FOG
SPIRIT OF STL  FOG       50  50 100 CALM      29.86F VSB 1/4
ST CHARLES     FOG       52  52 100 CALM      29.85F VSB 1/4

$$
MOZ072>076-082>087-097>100-106>115-221100-
...SOUTH CENTRAL AND SOUTHEAST MISSOURI...

CITY           SKY/WX    TMP DP  RH WIND       PRES   REMARKS
CAPE GIRARDEAU CLOUDY    55  53  93 W3        29.91R FOG
FARMINGTON     CLOUDY    56  55  97 SW3       29.89S
POPLAR BLUFF   CLOUDY    58  58 100 CALM      29.90R
WEST PLAINS    CLOUDY    55  54  96 CALM      29.89F FOG

$$



USA.gov is the U.S. government's official web portal to all federal, state and local government web resources and services.